Location: *
(45.9500°N, 9.0833°E)
Time: 21:02:55
(UTC+00:00)

Cosmos 192 - Pass Details

Date: 03 March 2021
Orbit: 700 x 714 km, 74.0° (Epoch: 20 April)

Event Time Altitude Azimuth Distance (km) Brightness Sun altitude
Rises 19:14:28 0° 197° (SSW) 3,072 7.7 -21.8°
Reaches altitude 10° 19:16:46 10° 197° (SSW) 2,159 6.9 -22.1°
Maximum altitude 19:21:38 83° 111° (ESE) 713 4.2 -23.0°
Drops below altitude 10° 19:26:34 10° 23° (NNE) 2,182 6.8 -23.8°
Sets 19:28:54 0° 23° (NNE) 3,106 7.6 -24.2°
